AC0MR Weather Reports


time (UTC)temp
C
wind
direction
speed
KPH
gust
KPH
rain 1hr
cm
rain 24hr
cm
rain mn
cm
humidity
%
barometer
mb
20260906164018 23 90 6.4 12.9 0.00 0.00 0.00 83 1019.4
20260906163019 22 113 6.4 16.1 0.00 0.00 0.00 83 1019.4
20260906162018 22 113 8.0 12.9 0.00 0.00 0.00 83 1019.3
20260906161018 22 90 6.4 14.5 0.00 0.00 0.00 84 1019.3
20260906160018 22 135 6.4 12.9 0.00 0.00 0.00 85 1019.4
20260906155018 22 90 4.8 9.7 0.00 0.00 0.00 86 1019.4
20260906154018 22 90 3.2 6.4 0.00 0.00 0.00 86 1019.4
20260906153018 22 90 4.8 12.9 0.00 0.00 0.00 87 1019.4
20260906152018 22 113 3.2 6.4 0.00 0.00 0.00 87 1019.5
20260906151018 21 68 3.2 6.4 0.00 0.00 0.00 88 1019.4
20260906150018 21 90 3.2 9.7 0.00 0.00 0.00 88 1019.3
20260906145018 21 90 3.2 11.3 0.00 0.00 0.00 89 1019.3
20260906144018 21 68 4.8 9.7 0.00 0.00 0.00 89 1019.2
20260906143018 21 90 3.2 9.7 0.00 0.00 0.00 89 1019.1
20260906142018 21 90 4.8 11.3 0.00 0.00 0.00 89 1019.1
20260906141018 21 45 3.2 9.7 0.00 0.00 0.00 89 1019.1
20260906140018 20 90 4.8 14.5 0.00 0.00 0.00 90 1019.0
20260906135018 20 90 8.0 20.9 0.00 0.00 0.00 90 1019.0
20260906134018 20 45 6.4 14.5 0.00 0.00 0.00 91 1018.8
20260906133018 20 68 4.8 14.5 0.00 0.00 0.00 91 1018.7
20260906132018 20 45 6.4 12.9 0.00 0.00 0.00 91 1018.6
20260906131018 20 45 4.8 9.7 0.00 0.00 0.00 91 1018.5
20260906130018 20 68 4.8 11.3 0.00 0.00 0.00 91 1018.5
20260906125018 20 90 4.8 12.9 0.00 0.00 0.00 91 1018.4
20260906124018 20 68 1.6 11.3 0.00 0.00 0.00 91 1018.4
20260906123018 20 68 3.2 8.0 0.00 0.00 0.00 91 1018.5
20260906122018 20 90 4.8 9.7 0.00 0.00 0.00 91 1018.4
20260906121018 20 68 1.6 6.4 0.00 0.00 0.00 91 1018.3
20260906120018 20 90 4.8 12.9 0.00 0.00 0.00 91 1018.2
20260906115018 20 90 3.2 12.9 0.00 0.00 0.00 91 1018.3
20260906114017 20 68 3.2 12.9 0.00 0.00 0.00 91 1018.1
20260906113018 20 113 3.2 9.7 0.00 0.00 0.00 91 1018.3
20260906112018 20 90 3.2 8.0 0.00 0.00 0.00 91 1018.1
20260906111017 20 90 3.2 6.4 0.00 0.00 0.00 91 1018.1
20260906110018 20 90 3.2 6.4 0.00 0.00 0.00 91 1018.1
20260906105018 20 90 1.6 6.4 0.00 0.00 0.00 91 1017.9
20260906104018 20 90 1.6 4.8 0.00 0.00 0.00 90 1018.0
20260906103017 20 90 3.2 6.4 0.00 0.00 0.00 90 1017.9
20260906102018 20 90 1.6 6.4 0.00 0.00 0.00 90 1017.7
20260906101017 20 68 1.6 6.4 0.00 0.00 0.00 90 1017.4
20260906100018 20 113 1.6 11.3 0.00 0.00 0.00 90 1017.2
20260906095018 20 68 3.2 8.0 0.00 0.00 0.00 90 1017.1
20260906094017 20 90 1.6 11.3 0.00 0.00 0.00 90 1016.9
20260906093017 20 90 3.2 8.0 0.00 0.00 0.00 90 1016.7
20260906092019 21 90 3.2 11.3 0.00 0.00 0.00 89 1016.8
20260906091019 21 68 1.6 8.0 0.00 0.00 0.00 89 1017.0
20260906090019 21 90 1.6 4.8 0.00 0.00 0.00 89 1016.8
20260906085019 21 90 3.2 6.4 0.00 0.00 0.00 89 1016.7
20260906084019 21 45 3.2 9.7 0.00 0.00 0.00 89 1016.6
20260906083019 21 90 3.2 8.0 0.00 0.00 0.00 89 1016.9
20260906082019 21 90 3.2 8.0 0.00 0.00 0.00 89 1016.9
20260906081019 21 90 4.8 12.9 0.00 0.00 0.00 88 1016.9
20260906080019 21 45 1.6 8.0 0.00 0.00 0.00 88 1017.0
20260906075019 21 90 3.2 12.9 0.00 0.00 0.00 88 1016.8
20260906074019 22 23 4.8 14.5 0.00 0.00 0.00 88 1017.1
20260906073019 22 68 4.8 9.7 0.00 0.00 0.00 88 1017.1
20260906072019 22 45 4.8 11.3 0.00 0.00 0.00 88 1017.3
20260906071019 22 68 3.2 9.7 0.00 0.00 0.00 88 1017.4
20260906070019 22 45 3.2 9.7 0.00 0.00 0.00 88 1017.5
20260906065020 22 23 4.8 11.3 0.00 0.00 0.00 88 1017.6
20260906064019 22 45 3.2 9.7 0.00 0.00 0.00 88 1017.4
20260906063019 22 45 1.6 6.4 0.00 0.00 0.00 87 1017.4
20260906062019 22 23 3.2 9.7 0.00 0.00 0.00 88 1017.4
20260906061019 22 23 4.8 9.7 0.00 0.00 0.00 88 1017.5
20260906060019 22 68 1.6 6.4 0.00 0.00 0.00 88 1017.2
20260906055019 22 45 4.8 14.5 0.00 0.00 0.00 88 1017.1
20260906054019 22 23 4.8 8.0 0.00 0.00 0.00 87 1017.2
20260906053019 22 0 1.6 6.4 0.00 0.00 0.00 87 1017.4
20260906052019 22 0 3.2 9.7 0.00 0.00 0.00 87 1017.3
20260906051019 22 45 3.2 8.0 0.00 0.00 0.00 87 1016.9
20260906050019 22 0 3.2 9.7 0.00 0.00 0.00 87 1016.9
20260906045019 22 338 3.2 9.7 0.00 0.00 0.00 86 1017.0
20260906044017 22 23 4.8 9.7 0.00 0.00 0.00 86 1017.1
20260906043019 23 338 4.8 8.0 0.00 0.00 0.00 86 1017.2
20260906042019 23 338 3.2 9.7 0.00 0.00 0.00 86 1017.1
20260906041019 23 338 4.8 8.0 0.00 0.00 0.00 86 1017.2
20260906040019 23 338 4.8 6.4 0.00 0.00 0.00 86 1016.8
20260906035019 23 23 3.2 6.4 0.00 0.00 0.00 86 1016.9
20260906034019 23 23 3.2 6.4 0.00 0.00 0.00 86 1016.7
20260906033019 23 23 1.6 6.4 0.00 0.00 0.00 85 1016.8
20260906032019 23 0 3.2 6.4 0.00 0.00 0.00 85 1016.8
20260906031019 23 45 3.2 4.8 0.00 0.00 0.00 85 1016.6
20260906030019 23 45 1.6 4.8 0.00 0.00 0.00 85 1016.6
20260906025019 23 45 1.6 4.8 0.00 0.00 0.00 84 1016.5
20260906024019 23 45 3.2 4.8 0.00 0.00 0.00 84 1016.1
20260906023019 24 45 1.6 4.8 0.00 0.00 0.00 83 1016.1
20260906022019 24 45 1.6 4.8 0.00 0.00 0.00 83 1016.0
20260906021019 24 45 1.6 6.4 0.00 0.00 0.00 82 1015.5
20260906020019 24 45 1.6 4.8 0.00 0.00 0.00 82 1015.4
20260906015019 25 68 1.6 4.8 0.00 0.00 0.00 82 1015.2
20260906014019 25 45 1.6 8.0 0.00 0.00 0.00 82 1015.1
20260906013019 25 68 3.2 8.0 0.00 0.00 0.00 82 1014.9
20260906012019 25 68 3.2 8.0 0.00 0.00 0.00 81 1014.8
20260906011019 25 68 1.6 11.3 0.00 0.00 0.00 81 1014.9
20260906010019 25 45 3.2 16.1 0.00 0.00 0.00 81 1014.7
20260906005019 25 45 3.2 12.9 0.00 0.00 0.00 80 1014.8
20260906004019 26 45 1.6 6.4 0.00 0.00 0.00 80 1014.7
20260906003019 26 45 3.2 8.0 0.00 0.00 0.00 79 1014.6
20260906002019 26 45 1.6 8.0 0.00 0.00 0.00 78 1014.6
20260906001019 26 45 1.6 4.8 0.00 0.00 0.00 78 1014.6
20260906000019 26 45 3.2 11.3 0.00 0.00 0.00 77 1014.6
20260905235019 27 45 3.2 9.7 0.00 0.00 0.00 76 1014.6
20260905234019 27 90 3.2 8.0 0.00 0.00 0.00 76 1014.6
20260905233019 27 45 4.8 14.5 0.00 0.00 0.00 76 1014.4
20260905232019 27 45 6.4 17.7 0.00 0.00 0.00 75 1014.3
20260905231018 27 23 4.8 17.7 0.00 0.00 0.00 75 1014.3
20260905230019 27 45 6.4 22.5 0.00 0.00 0.00 74 1014.4
20260905225019 28 23 9.7 19.3 0.00 0.00 0.00 74 1014.2
20260905224019 28 45 6.4 19.3 0.00 0.00 0.00 74 1014.2
20260905223019 28 23 8.0 16.1 0.00 0.00 0.00 74 1014.1
20260905222019 28 45 4.8 12.9 0.00 0.00 0.00 75 1014.3
20260905221019 28 23 6.4 16.1 0.00 0.00 0.00 74 1014.3
20260905220018 28 0 6.4 17.7 0.00 0.00 0.00 75 1014.3
20260905215018 28 45 8.0 17.7 0.00 0.00 0.00 74 1014.2
20260905214019 28 0 9.7 17.7 0.00 0.00 0.00 75 1014.3
20260905213019 28 23 9.7 20.9 0.00 0.00 0.00 75 1014.4
20260905212018 29 0 9.7 17.7 0.00 0.00 0.00 75 1014.4
20260905211019 30 0 11.3 22.5 0.00 0.00 0.00 74 1014.5
20260905210019 30 23 8.0 16.1 0.00 0.00 0.00 74 1014.5
20260905205018 30 0 9.7 17.7 0.00 0.00 0.00 74 1014.6
20260905204018 30 0 8.0 16.1 0.00 0.00 0.00 74 1014.6
20260905203019 30 0 8.0 16.1 0.00 0.00 0.00 73 1014.6
20260905202019 30 0 4.8 9.7 0.00 0.00 0.00 73 1014.6
20260905201018 30 0 4.8 12.9 0.00 0.00 0.00 73 1014.3
20260905200018 30 0 8.0 17.7 0.00 0.00 0.00 74 1014.4
20260905195018 30 0 6.4 16.1 0.00 0.00 0.00 75 1014.8
20260905194019 30 338 6.4 12.9 0.00 0.00 0.00 74 1015.0
20260905193019 30 45 6.4 14.5 0.00 0.00 0.00 75 1015.1
20260905192019 30 0 6.4 14.5 0.00 0.00 0.00 75 1015.3
20260905191018 30 338 4.8 12.9 0.00 0.00 0.00 74 1015.5
20260905190018 30 315 3.2 8.0 0.00 0.00 0.00 73 1015.2
20260905185018 31 45 3.2 9.7 0.00 0.00 0.00 75 1015.3
20260905184018 31 338 4.8 12.9 0.00 0.00 0.00 75 1015.3
20260905183019 30 45 4.8 9.7 0.00 0.00 0.00 76 1015.3
20260905182018 30 45 6.4 14.5 0.00 0.00 0.00 74 1015.4
20260905181018 31 23 4.8 16.1 0.00 0.00 0.00 75 1015.3
20260905180018 31 23 6.4 16.1 0.00 0.00 0.00 73 1015.2
20260905175018 31 45 6.4 16.1 0.00 0.00 0.00 74 1015.2
20260905174018 31 23 8.0 14.5 0.00 0.00 0.00 72 1015.2
20260905173018 31 23 4.8 12.9 0.00 0.00 0.00 74 1015.2
20260905172018 31 23 6.4 14.5 0.00 0.00 0.00 75 1015.2
20260905171018 31 23 6.4 16.1 0.00 0.00 0.00 74 1015.3
20260905170018 30 23 6.4 14.5 0.00 0.00 0.00 74 1015.4
20260905165018 30 23 6.4 16.1 0.00 0.00 0.00 76 1015.5